Le Mars, IA

11:48 AM CDT on September 18, 2019 (GMT -0500)
Le Mars Municipal

Weather History for KLRJ - July, 2019

Change the Weather History Date:

Monday, July 15, 2019

  Actual Average Record
Temperature  
Mean Temperature 84 °F -  
Max Temperature 93 °F 86 °F 98 °F (1981)
Min Temperature 75 °F 62 °F 49 °F (1990)
Cooling Degree Days 19    
Growing Degree Days 34 (Base 50)    
Moisture  
Dew Point 74 °F    
Average Humidity 77    
Maximum Humidity 94    
Minimum Humidity 56    
Precipitation  
Precipitation 0.00 in - - ()
Sea Level Pressure  
Sea Level Pressure 29.88 in    
Wind  
Wind Speed 12 mph (South)    
Max Wind Speed 22 mph    
Max Gust Speed 29 mph    
Visibility 10 miles    
Events      
Averages and records for this station are not official NWS values.
T = Trace of Precipitation, MM = Missing Value Source: NWS Daily Summary

Daily Weather History Graph

Daily Weather History Graph

Search for Another Location

Airport or City:

Astronomy

Jul. 15, 2019 Rise Set
Actual Time 5:59 AM CDT 9:01 PM CDT
Civil Twilight 5:25 AM CDT 9:35 PM CDT
Nautical Twilight 4:42 AM CDT 10:18 PM CDT
Astronomical Twilight 3:51 AM CDT 11:09 PM CDT
Moon 8:20 PM CDT (7/15) 4:47 AM CDT (7/15)
Length of Visible Light 16h 09m
Length of Day
15h 01m
Waxing Gibbous, 99% of the Moon is Illuminated
Jul 15
Waxing Gibbous
Jul 16
Full
Jul 24
Last Quarter
Jul 31
New
Aug 7
First Quarter

Hourly Weather History & Observations

Time (CDT) Temp. Heat Index Dew Point Humidity Pressure Visibility Wind Dir Wind Speed Gust Speed Precip Events Conditions
12:15 AM 77.0 °F - 71.6 °F 83% 29.93 in 10.0 mi South 8.1 mph - N/A   Clear
12:35 AM 77.0 °F - 71.6 °F 83% 29.94 in 10.0 mi South 9.2 mph - N/A   Clear
12:55 AM 77.0 °F - 71.6 °F 83% 29.94 in 10.0 mi South 10.4 mph - N/A   Clear
1:15 AM 77.0 °F - 71.6 °F 83% 29.95 in 10.0 mi SSW 6.9 mph - N/A   Clear
1:35 AM 77.0 °F - 71.6 °F 83% 29.96 in 10.0 mi South 5.8 mph - N/A   Clear
1:55 AM 75.2 °F - 71.6 °F 89% 29.95 in 10.0 mi South 8.1 mph - N/A   Clear
2:15 AM 75.2 °F - 71.6 °F 89% 29.94 in 10.0 mi SSE 9.2 mph - N/A   Clear
2:35 AM 75.2 °F - 71.6 °F 89% 29.93 in 10.0 mi SSE 13.8 mph - N/A   Clear
2:55 AM 77.0 °F - 71.6 °F 83% 29.93 in 10.0 mi SSE 10.4 mph - N/A   Partly Cloudy
3:15 AM 75.2 °F - 71.6 °F 89% 29.94 in 10.0 mi South 6.9 mph - N/A   Mostly Cloudy
3:35 AM 75.2 °F - 71.6 °F 89% 29.93 in 10.0 mi South 8.1 mph - N/A   Scattered Clouds
3:55 AM 75.2 °F - 71.6 °F 89% 29.92 in 10.0 mi SSE 12.7 mph - N/A   Scattered Clouds
4:15 AM 75.2 °F - 71.6 °F 89% 29.90 in 10.0 mi SSE 11.5 mph - N/A   Partly Cloudy
4:35 AM 75.2 °F - 71.6 °F 89% 29.90 in 10.0 mi SSE 10.4 mph - N/A   Clear
4:55 AM 75.2 °F - 71.6 °F 89% 29.91 in 10.0 mi SSE 11.5 mph - N/A   Clear
5:15 AM 75.2 °F - 71.6 °F 89% 29.92 in 10.0 mi South 10.4 mph - N/A   Clear
5:35 AM 75.2 °F - 71.6 °F 89% 29.93 in 10.0 mi South 10.4 mph - N/A   Clear
5:55 AM 75.2 °F - 71.6 °F 89% 29.93 in 10.0 mi South 8.1 mph - N/A   Clear
6:15 AM 75.2 °F - 73.4 °F 94% 29.92 in 10.0 mi South 9.2 mph - N/A   Partly Cloudy
6:35 AM 75.2 °F - 73.4 °F 94% 29.91 in 10.0 mi South 11.5 mph - N/A   Clear
6:55 AM 75.2 °F - 73.4 °F 94% 29.91 in 10.0 mi South 12.7 mph - N/A   Clear
7:15 AM 77.0 °F - 73.4 °F 89% 29.91 in 10.0 mi South 15.0 mph - N/A   Clear
7:35 AM 77.0 °F - 73.4 °F 89% 29.92 in 10.0 mi South 13.8 mph - N/A   Clear
7:55 AM 77.0 °F - 73.4 °F 89% 29.91 in 10.0 mi South 13.8 mph - N/A   Clear
8:15 AM 77.0 °F - 73.4 °F 89% 29.91 in 10.0 mi South 16.1 mph - N/A   Clear
8:35 AM 78.8 °F - 73.4 °F 83% 29.91 in 10.0 mi South 17.3 mph 23.0 mph N/A   Clear
8:55 AM 80.6 °F 85.4 °F 73.4 °F 79% 29.90 in 10.0 mi South 19.6 mph - N/A   Clear
9:15 AM 80.6 °F 85.4 °F 73.4 °F 79% 29.90 in 10.0 mi South 19.6 mph 26.5 mph N/A   Clear
9:35 AM 82.4 °F 88.2 °F 73.4 °F 74% 29.92 in 10.0 mi SSW 17.3 mph 27.6 mph N/A   Clear
9:55 AM 82.4 °F 89.5 °F 75.2 °F 79% 29.90 in 10.0 mi South 20.7 mph - N/A   Clear
10:15 AM 84.2 °F 92.3 °F 75.2 °F 74% 29.89 in 10.0 mi South 17.3 mph 26.5 mph N/A   Clear
10:35 AM 84.2 °F 92.3 °F 75.2 °F 74% 29.89 in 10.0 mi South 21.9 mph - N/A   Clear
10:55 AM 86.0 °F 93.4 °F 73.4 °F 66% 29.89 in 10.0 mi South 21.9 mph - N/A   Clear
11:15 AM 86.0 °F 95.1 °F 75.2 °F 70% 29.89 in 10.0 mi South 18.4 mph 25.3 mph N/A   Clear
11:35 AM 87.8 °F 97.6 °F 75.2 °F 66% 29.89 in 10.0 mi South 18.4 mph 24.2 mph N/A   Clear
11:55 AM 87.8 °F 97.6 °F 75.2 °F 66% 29.88 in 10.0 mi South 21.9 mph 27.6 mph N/A   Clear
12:15 PM 87.8 °F 99.7 °F 77.0 °F 70% 29.88 in 10.0 mi South 17.3 mph 25.3 mph N/A   Clear
12:35 PM 89.6 °F 99.8 °F 75.2 °F 62% 29.87 in 10.0 mi SSW 20.7 mph 28.8 mph N/A   Clear
12:55 PM 89.6 °F 98.2 °F 73.4 °F 59% 29.87 in 10.0 mi South 19.6 mph 27.6 mph N/A   Clear
1:15 PM 89.6 °F 99.8 °F 75.2 °F 62% 29.87 in 10.0 mi SSW 19.6 mph 26.5 mph N/A   Clear
1:35 PM 91.4 °F 102.5 °F 75.2 °F 59% 29.86 in 10.0 mi SSW 20.7 mph 28.8 mph N/A   Clear
1:55 PM 91.4 °F 102.5 °F 75.2 °F 59% 29.86 in 10.0 mi SSW 19.6 mph 26.5 mph N/A   Clear
2:15 PM 91.4 °F 102.5 °F 75.2 °F 59% 29.85 in 10.0 mi South 19.6 mph - N/A   Partly Cloudy
2:35 PM 93.2 °F 105.0 °F 75.2 °F 56% 29.85 in 10.0 mi South 16.1 mph 25.3 mph N/A   Partly Cloudy
2:55 PM 93.2 °F 105.0 °F 75.2 °F 56% 29.84 in 10.0 mi South 21.9 mph 27.6 mph N/A   Clear
3:15 PM 93.2 °F 105.0 °F 75.2 °F 56% 29.83 in 10.0 mi South 20.7 mph 27.6 mph N/A   Clear
3:35 PM 93.2 °F 105.0 °F 75.2 °F 56% 29.84 in 10.0 mi South 18.4 mph 26.5 mph N/A   Partly Cloudy
3:55 PM 91.4 °F 102.5 °F 75.2 °F 59% 29.85 in 10.0 mi South 17.3 mph 24.2 mph N/A   Scattered Clouds
4:15 PM 93.2 °F 105.0 °F 75.2 °F 56% 29.85 in 10.0 mi SSW 16.1 mph - N/A   Mostly Cloudy
4:35 PM 93.2 °F 105.0 °F 75.2 °F 56% 29.84 in 10.0 mi SSW 18.4 mph 25.3 mph N/A   Mostly Cloudy
4:55 PM 91.4 °F 105.1 °F 77.0 °F 63% 29.84 in 10.0 mi South 13.8 mph - N/A   Scattered Clouds
5:15 PM 91.4 °F 105.1 °F 77.0 °F 63% 29.83 in 10.0 mi South 16.1 mph 21.9 mph N/A   Mostly Cloudy
5:35 PM 91.4 °F 105.1 °F 77.0 °F 63% 29.83 in 10.0 mi South 16.1 mph - N/A   Mostly Cloudy
5:55 PM 91.4 °F 105.1 °F 77.0 °F 63% 29.83 in 10.0 mi South 15.0 mph - N/A   Mostly Cloudy
6:15 PM 91.4 °F 105.1 °F 77.0 °F 63% 29.83 in 10.0 mi South 13.8 mph - N/A   Scattered Clouds
6:35 PM 89.6 °F 99.8 °F 75.2 °F 62% 29.82 in 10.0 mi South 12.7 mph 19.6 mph N/A   Mostly Cloudy
6:55 PM 89.6 °F 102.2 °F 77.0 °F 66% 29.82 in 10.0 mi South 15.0 mph - N/A   Mostly Cloudy
7:15 PM 87.8 °F 99.7 °F 77.0 °F 70% 29.83 in 10.0 mi South 10.4 mph 17.3 mph N/A   Partly Cloudy
7:35 PM 87.8 °F 99.7 °F 77.0 °F 70% 29.83 in 10.0 mi South 9.2 mph 15.0 mph N/A   Partly Cloudy
7:55 PM 86.0 °F 96.9 °F 77.0 °F 74% 29.84 in 9.0 mi South 6.9 mph - N/A   Scattered Clouds
8:15 PM 84.2 °F 94.1 °F 77.0 °F 79% 29.84 in 10.0 mi SSW 8.1 mph - N/A   Mostly Cloudy
8:35 PM 82.4 °F 89.5 °F 75.2 °F 79% 29.82 in 10.0 mi SSW 13.8 mph - N/A   Scattered Clouds
8:55 PM 80.6 °F 86.2 °F 75.2 °F 84% 29.81 in 10.0 mi South 6.9 mph 16.1 mph N/A   Clear
9:15 PM 80.6 °F 87.1 °F 77.0 °F 89% 29.79 in 10.0 mi SE 11.5 mph - N/A   Partly Cloudy
9:35 PM 80.6 °F 87.1 °F 77.0 °F 89% 29.81 in 10.0 mi SE 6.9 mph 12.7 mph N/A   Clear
9:55 PM 80.6 °F 87.1 °F 77.0 °F 89% 29.84 in 10.0 mi Calm Calm - N/A   Mostly Cloudy
10:15 PM 80.6 °F 86.2 °F 75.2 °F 84% 29.85 in 10.0 mi Calm Calm - N/A   Overcast
10:35 PM 80.6 °F 86.2 °F 75.2 °F 84% 29.85 in 10.0 mi SE 10.4 mph - N/A   Overcast
10:55 PM 80.6 °F 86.2 °F 75.2 °F 84% 29.85 in 10.0 mi SSE 8.1 mph - N/A   Mostly Cloudy
11:15 PM 78.8 °F - 75.2 °F 89% 29.86 in 10.0 mi South 5.8 mph - N/A   Scattered Clouds
11:35 PM 78.8 °F - 75.2 °F 89% 29.86 in 10.0 mi South 8.1 mph - N/A   Partly Cloudy
11:55 PM 78.8 °F - 75.2 °F 89% 29.86 in 10.0 mi South 12.7 mph - N/A   Clear